TimePST,TemperatureF,Dew PointF,Humidity,Sea Level PressureIn,VisibilityMPH,Wind Direction,Wind SpeedMPH,Gust SpeedMPH,PrecipitationIn,Events,Conditions,WindDirDegrees,DateUTC
12:53 AM,39.9,30.0,68,30.23,10.0,ESE,5.8,-,0.00,,Overcast,110,2012-11-12 08:53:00
1:53 AM,42.1,30.0,62,30.22,10.0,SE,8.1,-,0.00,,Overcast,130,2012-11-12 09:53:00
2:53 AM,42.1,33.1,70,30.21,10.0,SSE,5.8,-,0.01,Rain,Light Rain,160,2012-11-12 10:53:00
3:53 AM,41.0,35.1,79,30.20,10.0,SSE,9.2,-,0.01,Rain,Light Rain,160,2012-11-12 11:53:00
4:53 AM,41.0,37.0,86,30.21,5.0,SSE,8.1,-,0.03,Rain,Light Rain,150,2012-11-12 12:53:00
5:53 AM,41.0,37.9,89,30.21,4.0,South,5.8,-,0.06,Rain,Light Rain,180,2012-11-12 13:53:00
6:53 AM,41.0,37.9,89,30.22,6.0,South,8.1,-,0.08,Rain,Light Rain,170,2012-11-12 14:53:00
7:53 AM,41.0,39.0,93,30.22,3.0,SSE,6.9,-,0.08,Rain,Rain,150,2012-11-12 15:53:00
8:53 AM,41.0,39.9,96,30.23,3.0,South,6.9,-,0.09,Rain,Rain,170,2012-11-12 16:53:00
9:22 AM,42.8,39.2,87,30.22,2.5,South,8.1,-,0.06,Rain,Rain,170,2012-11-12 17:22:00
9:46 AM,42.8,39.2,87,30.22,3.0,SSE,6.9,-,0.11,Rain,Rain,160,2012-11-12 17:46:00
9:53 AM,42.1,39.9,92,30.23,3.0,SSE,6.9,-,0.12,Rain,Rain,150,2012-11-12 17:53:00
10:53 AM,43.0,39.9,89,30.22,8.0,SSE,9.2,-,0.06,Rain,Light Rain,150,2012-11-12 18:53:00
11:53 AM,45.0,41.0,86,30.20,10.0,SSE,9.2,-,0.00,Rain,Light Rain,150,2012-11-12 19:53:00
12:53 PM,45.0,41.0,86,30.19,10.0,SSE,6.9,-,0.01,,Overcast,160,2012-11-12 20:53:00
1:53 PM,46.9,39.9,77,30.19,10.0,South,9.2,-,0.00,,Overcast,190,2012-11-12 21:53:00
2:53 PM,46.9,39.9,77,30.19,10.0,South,5.8,-,0.00,Rain,Light Rain,180,2012-11-12 22:53:00
3:53 PM,46.0,39.9,79,30.19,10.0,South,9.2,-,0.01,Rain,Light Rain,190,2012-11-12 23:53:00
4:53 PM,45.0,39.9,82,30.19,10.0,South,6.9,-,0.01,,Overcast,190,2012-11-13 00:53:00
5:53 PM,45.0,39.9,82,30.20,10.0,South,11.5,-,N/A,,Overcast,180,2012-11-13 01:53:00
6:53 PM,46.0,39.0,76,30.21,10.0,South,6.9,-,N/A,,Overcast,180,2012-11-13 02:53:00
7:53 PM,45.0,39.9,82,30.22,10.0,South,6.9,-,N/A,,Overcast,170,2012-11-13 03:53:00
8:53 PM,45.0,39.9,82,30.22,10.0,SSE,6.9,-,N/A,,Overcast,160,2012-11-13 04:53:00
9:53 PM,45.0,39.9,82,30.23,10.0,South,6.9,-,N/A,,Overcast,170,2012-11-13 05:53:00
10:53 PM,45.0,39.0,80,30.24,10.0,South,6.9,-,N/A,,Overcast,180,2012-11-13 06:53:00
11:53 PM,44.1,37.9,79,30.25,10.0,South,5.8,-,N/A,,Overcast,190,2012-11-13 07:53:00